TimeEDT,TemperatureF,Dew PointF,Humidity,Sea Level PressureIn,VisibilityMPH,Wind Direction,Wind SpeedMPH,Gust SpeedMPH,PrecipitationIn,Events,Conditions,WindDirDegrees,DateUTC
12:07 AM,60.8,55.4,82,30.09,10.0,Variable,5.8,-,N/A,,Overcast,0,2013-10-11 04:07:00
12:21 AM,60.8,55.4,82,30.09,10.0,Variable,5.8,-,N/A,,Overcast,0,2013-10-11 04:21:00
12:56 AM,60.1,55.0,83,30.09,10.0,Variable,5.8,-,N/A,,Overcast,0,2013-10-11 04:56:00
1:56 AM,60.1,55.0,83,30.06,10.0,NNE,5.8,-,N/A,,Overcast,20,2013-10-11 05:56:00
2:56 AM,61.0,55.9,83,30.06,10.0,North,3.5,-,N/A,,Overcast,10,2013-10-11 06:56:00
3:56 AM,60.1,55.9,86,30.05,10.0,Variable,5.8,-,N/A,,Overcast,0,2013-10-11 07:56:00
4:56 AM,60.1,55.9,86,30.05,10.0,NNE,6.9,-,N/A,,Overcast,30,2013-10-11 08:56:00
5:56 AM,61.0,55.9,83,30.05,10.0,Variable,6.9,-,N/A,,Overcast,0,2013-10-11 09:56:00
6:56 AM,61.0,57.0,87,30.05,10.0,Variable,5.8,-,N/A,,Overcast,0,2013-10-11 10:56:00
7:56 AM,61.0,57.0,87,30.07,10.0,Variable,4.6,-,N/A,,Overcast,0,2013-10-11 11:56:00
8:56 AM,62.1,57.0,84,30.06,10.0,NNE,8.1,-,N/A,,Overcast,30,2013-10-11 12:56:00
9:56 AM,62.1,57.0,84,30.06,10.0,Variable,5.8,-,N/A,,Overcast,0,2013-10-11 13:56:00
10:56 AM,63.0,57.0,81,30.06,10.0,Variable,5.8,-,N/A,,Overcast,0,2013-10-11 14:56:00
11:10 AM,64.4,57.2,77,30.07,10.0,Variable,5.8,-,N/A,,Overcast,0,2013-10-11 15:10:00
11:21 AM,64.4,57.2,77,30.07,10.0,Variable,5.8,-,N/A,,Overcast,0,2013-10-11 15:21:00
11:56 AM,64.0,57.9,80,30.08,10.0,Variable,6.9,-,N/A,,Overcast,0,2013-10-11 15:56:00
12:56 PM,66.0,57.9,75,30.05,10.0,Variable,4.6,-,N/A,,Overcast,0,2013-10-11 16:56:00
1:48 PM,68.0,57.2,68,30.04,10.0,ENE,8.1,-,N/A,,Overcast,60,2013-10-11 17:48:00
1:56 PM,68.0,57.9,70,30.05,10.0,Variable,6.9,20.7,N/A,,Overcast,0,2013-10-11 17:56:00
2:56 PM,68.0,57.9,70,30.04,10.0,Variable,6.9,-,N/A,,Overcast,0,2013-10-11 18:56:00
3:56 PM,68.0,57.0,68,30.04,10.0,ENE,8.1,-,N/A,,Overcast,60,2013-10-11 19:56:00
4:56 PM,66.9,57.0,70,30.04,10.0,Variable,5.8,-,N/A,,Mostly Cloudy,0,2013-10-11 20:56:00
5:56 PM,66.9,57.0,70,30.05,10.0,Variable,5.8,-,N/A,,Clear,0,2013-10-11 21:56:00
6:56 PM,66.0,57.0,73,30.07,10.0,Variable,3.5,-,N/A,,Overcast,0,2013-10-11 22:56:00
7:56 PM,66.0,55.9,70,30.09,10.0,Variable,4.6,-,N/A,,Overcast,0,2013-10-11 23:56:00
8:56 PM,64.9,55.9,73,30.09,10.0,Variable,4.6,-,N/A,,Overcast,0,2013-10-12 00:56:00
9:23 PM,64.4,55.4,73,30.09,10.0,Variable,5.8,-,N/A,,Mostly Cloudy,0,2013-10-12 01:23:00
9:56 PM,64.0,55.0,73,30.10,10.0,Variable,5.8,-,N/A,,Clear,0,2013-10-12 01:56:00
10:56 PM,63.0,54.0,72,30.10,10.0,Variable,4.6,-,N/A,,Partly Cloudy,0,2013-10-12 02:56:00
11:56 PM,61.0,53.1,75,30.09,10.0,Variable,3.5,-,N/A,,Mostly Cloudy,0,2013-10-12 03:56:00